Location: Aciu?a
(46.2833°N, 22.4500°E)
Time: 05:29:55
(UTC+00:00)

Cosmos 2346 Rocket - Pass Details

Date: 25 October 2021
Orbit: 937 x 980 km, 82.9° (Epoch: 04 December)

Event Time Altitude Azimuth Distance (km) Brightness Sun altitude
Rises 18:04:41 0° 350° (N) 3,684 7.8 -27.9°
Reaches altitude 10° 18:07:12 10° 350° (N) 2,736 7.1 -28.3°
Maximum altitude 18:13:29 82° 264° (W) 995 4.5 -29.4°
Enters shadow 18:14:41 61° 189° (S) 1,106 4.6 -29.6°
